TERRA SAR X

Satellite information

Favourite Embed

Satellite Type and Status

PAYLOADIN ORBIT

Key statistics

Satellite TERRA SAR X at a glance.

Uptime

6657

Days in orbit

Revolutions

≈ 15.2

Per day

Orbit

SSO

Sun Synchronous Orbit

Inclination

97.4

Latest

Satellite identification and parameters

Extended collection of information and parameters for TERRA SAR X.

Object identification

Identified? True

Debris? False

Object name: TERRA SAR X

International designator: 2007-026A

Object number (NORAD): 31698

Object ID (CCSDS): 31698

Country: GERMANY (GER)

Current information (Y/N): Y

RCS size: LARGE

Orbital parameters

Period: 94.789 minutes

Inclination: 97.4465 deg

SMA: 6886.525 km

Apoapsis: 509.675 km

Periapsis: 507.105 km

RAAN: 252.6397 deg

Eccentricy: 0.00018661

Argument of periapsis: 87.3662 deg

Mean anomaly: 272.7786 deg

Mean motion: 15.19156765 rev/day

Mean motion (dot): 0.000026 rev/day2

B* drag term: 0.00012693637 1/REarth

Two-line elements (TLE)

Creation date: Sept. 3, 2025, 2:21 a.m.

Reference frame: TEME

Reference center: EARTH

Epoch: Sept. 2, 2025, 7:24 p.m. UTC

TLE line 0: 0 TERRA SAR X

TLE line 1: 1 31698U 07026A 25245.80848783 .00002600 00000-0 12694-3 0 9999

TLE line 2: 2 31698 97.4465 252.6397 0001866 87.3662 272.7786 15.19156765 9599

Live tracking on map

Real-time ground track for satellite TERRA SAR X.

In-orbit conjunctions

There are no conjunctions computed for TERRA SAR X, at the moment. Check back to stay up to date, as we update our databases every day.

Go to all conjunctions

Associated space launch

German Earth observation satellite

TERRA SAR X was lifted into orbit during the mission ‘Dnepr | TerraSAR-X’, on board a Dnepr space rocket.

The launch took place on June 15, 2007, 2:14 a.m. from 109/95.

For more information about the launch, click the button.

Launch to space Dnepr | TerraSAR-X
Dnepr | TerraSAR-X

Agency: N/A

Status: Launch Successful

Launch date: June 15, 2007, 2:14 a.m. UTC

Rocket: Dnepr

Launch pad: 109/95

Location: Baikonur Cosmodrome, Republic of Kazakhstan

...

Latest news about this satellite

There are no fresh news available about this satellite. Check back as we update our databases every day.


Newsletter sign-up

Weekly statistics, charts and insights to help you stay on top of the space industry.